owner,sensor,date,latitude,longitude,vertical_datum,sea_water_practical_salinity,qcFlag 
NERRS,ioos:station:NOAA.NERRS:apaebwq:1,2015-10-01T00:45:00Z,29.7858,-84.8752,2.17,20.6,1111122 
NERRS,ioos:station:NOAA.NERRS:apaebwq:1,2015-10-01T01:45:00Z,29.7858,-84.8752,2.1,19.7,1111122 
NERRS,ioos:station:NOAA.NERRS:apaebwq:1,2015-10-01T02:45:00Z,29.7858,-84.8752,2.02,19.9,1111122 
NERRS,ioos:station:NOAA.NERRS:apaebwq:1,2015-10-01T05:45:00Z,29.7858,-84.8752,2.03,20.2,1111122 
NERRS,ioos:station:NOAA.NERRS:apaebwq:1,2015-10-01T07:45:00Z,29.7858,-84.8752,2.19,20.2,1111122 
NERRS,ioos:station:NOAA.NERRS:apaebwq:1,2015-10-01T09:45:00Z,29.7858,-84.8752,2.27,20.0,1111122 
NERRS,ioos:station:NOAA.NERRS:apaebwq:1,2015-10-01T10:45:00Z,29.7858,-84.8752,2.21,20.1,1111122 
NERRS,ioos:station:NOAA.NERRS:apaebwq:1,2015-10-01T11:45:00Z,29.7858,-84.8752,2.11,19.8,1111122 
NERRS,ioos:station:NOAA.NERRS:apaebwq:1,2015-10-01T12:45:00Z,29.7858,-84.8752,2.0,19.3,1111122 
NERRS,ioos:station:NOAA.NERRS:apaebwq:1,2015-10-01T14:45:00Z,29.7858,-84.8752,1.77,19.6,1111122 
NERRS,ioos:station:NOAA.NERRS:apaebwq:1,2015-10-01T15:45:00Z,29.7858,-84.8752,1.68,19.9,1111122 
NERRS,ioos:station:NOAA.NERRS:apaebwq:1,2015-10-01T16:45:00Z,29.7858,-84.8752,1.6,20.0,1111122 
NERRS,ioos:station:NOAA.NERRS:apaebwq:1,2015-10-01T17:45:00Z,29.7858,-84.8752,1.57,19.9,1111122 
NERRS,ioos:station:NOAA.NERRS:apaebwq:1,2015-10-01T18:45:00Z,29.7858,-84.8752,1.64,19.9,1111122 
NERRS,ioos:station:NOAA.NERRS:apaebwq:1,2015-10-01T19:45:00Z,29.7858,-84.8752,1.79,20.0,1111122 
NERRS,ioos:station:NOAA.NERRS:apaebwq:1,2015-10-01T22:45:00Z,29.7858,-84.8752,2.1,19.6,1111122 
NERRS,ioos:station:NOAA.NERRS:apaebwq:1,2015-10-01T23:45:00Z,29.7858,-84.8752,2.12,19.4,1111122 
NERRS,ioos:station:NOAA.NERRS:apaebwq:1,2015-10-02T00:45:00Z,29.7858,-84.8752,2.08,19.5,1111122 
NERRS,ioos:station:NOAA.NERRS:apaebwq:1,2015-10-02T02:45:00Z,29.7858,-84.8752,1.91,19.6,1111122 
NERRS,ioos:station:NOAA.NERRS:apaebwq:1,2015-10-02T04:45:00Z,29.7858,-84.8752,1.81,19.6,1111122 
NERRS,ioos:station:NOAA.NERRS:apaebwq:1,2015-10-02T05:45:00Z,29.7858,-84.8752,1.82,19.9,1111122 
NERRS,ioos:station:NOAA.NERRS:apaebwq:1,2015-10-02T07:45:00Z,29.7858,-84.8752,1.93,19.8,1111122 
NERRS,ioos:station:NOAA.NERRS:apaebwq:1,2015-10-02T08:45:00Z,29.7858,-84.8752,2.01,19.9,1111122 
NERRS,ioos:station:NOAA.NERRS:apaebwq:1,2015-10-02T09:45:00Z,29.7858,-84.8752,2.09,19.7,1111122 
NERRS,ioos:station:NOAA.NERRS:apaebwq:1,2015-10-02T10:45:00Z,29.7858,-84.8752,2.12,19.4,1111122 
NERRS,ioos:station:NOAA.NERRS:apaebwq:1,2015-10-02T11:45:00Z,29.7858,-84.8752,2.04,19.2,1111122 
NERRS,ioos:station:NOAA.NERRS:apaebwq:1,2015-10-02T13:45:00Z,29.7858,-84.8752,1.83,19.7,1111122 
NERRS,ioos:station:NOAA.NERRS:apaebwq:1,2015-10-02T14:45:00Z,29.7858,-84.8752,1.72,19.8,1111122 
NERRS,ioos:station:NOAA.NERRS:apaebwq:1,2015-10-02T15:45:00Z,29.7858,-84.8752,1.63,19.8,1111122 
NERRS,ioos:station:NOAA.NERRS:apaebwq:1,2015-10-02T16:45:00Z,29.7858,-84.8752,1.54,19.8,1111122 
NERRS,ioos:station:NOAA.NERRS:apaebwq:1,2015-10-02T20:45:00Z,29.7858,-84.8752,1.55,19.8,1111122 
NERRS,ioos:station:NOAA.NERRS:apaebwq:1,2015-10-02T22:45:00Z,29.7858,-84.8752,1.84,19.8,1111122 
NERRS,ioos:station:NOAA.NERRS:apaebwq:1,2015-10-03T01:45:00Z,29.7858,-84.8752,1.95,19.3,1111122 
NERRS,ioos:station:NOAA.NERRS:apaebwq:1,2015-10-03T04:45:00Z,29.7858,-84.8752,1.79,19.6,1111122 
NERRS,ioos:station:NOAA.NERRS:apaebwq:1,2015-10-03T05:45:00Z,29.7858,-84.8752,1.79,19.6,1111122 
NERRS,ioos:station:NOAA.NERRS:apaebwq:1,2015-10-03T08:45:00Z,29.7858,-84.8752,2.0,19.1,1111122 
NERRS,ioos:station:NOAA.NERRS:apaebwq:1,2015-10-03T09:45:00Z,29.7858,-84.8752,2.07,18.9,1111122 
NERRS,ioos:station:NOAA.NERRS:apaebwq:1,2015-10-03T10:45:00Z,29.7858,-84.8752,2.1,19.0,1111122 
NERRS,ioos:station:NOAA.NERRS:apaebwq:1,2015-10-03T11:45:00Z,29.7858,-84.8752,2.09,18.9,1111122 
NERRS,ioos:station:NOAA.NERRS:apaebwq:1,2015-10-03T12:45:00Z,29.7858,-84.8752,2.02,18.5,1111122 
NERRS,ioos:station:NOAA.NERRS:apaebwq:1,2015-10-03T14:45:00Z,29.7858,-84.8752,1.84,19.0,1111122 
NERRS,ioos:station:NOAA.NERRS:apaebwq:1,2015-10-03T15:45:00Z,29.7858,-84.8752,1.74,19.0,1111122 
NERRS,ioos:station:NOAA.NERRS:apaebwq:1,2015-10-03T16:45:00Z,29.7858,-84.8752,1.64,19.1,1111122 
NERRS,ioos:station:NOAA.NERRS:apaebwq:1,2015-10-03T18:45:00Z,29.7858,-84.8752,1.49,19.2,1111122 
NERRS,ioos:station:NOAA.NERRS:apaebwq:1,2015-10-03T20:45:00Z,29.7858,-84.8752,1.51,18.6,1111122 
NERRS,ioos:station:NOAA.NERRS:apaebwq:1,2015-10-03T21:45:00Z,29.7858,-84.8752,1.59,19.1,1111122 
NERRS,ioos:station:NOAA.NERRS:apaebwq:1,2015-10-03T23:45:00Z,29.7858,-84.8752,1.81,19.0,1111122 
NERRS,ioos:station:NOAA.NERRS:apaebwq:1,2015-10-04T05:45:00Z,29.7858,-84.8752,1.82,18.6,1111122 
NERRS,ioos:station:NOAA.NERRS:apaebwq:1,2015-10-04T09:45:00Z,29.7858,-84.8752,1.99,18.5,1111122 
NERRS,ioos:station:NOAA.NERRS:apaebwq:1,2015-10-04T10:45:00Z,29.7858,-84.8752,2.04,18.3,1111122 
NERRS,ioos:station:NOAA.NERRS:apaebwq:1,2015-10-04T11:45:00Z,29.7858,-84.8752,2.06,17.7,1111122 
NERRS,ioos:station:NOAA.NERRS:apaebwq:1,2015-10-04T12:45:00Z,29.7858,-84.8752,2.07,17.9,1111122 
NERRS,ioos:station:NOAA.NERRS:apaebwq:1,2015-10-04T13:45:00Z,29.7858,-84.8752,2.01,18.5,1111122 
NERRS,ioos:station:NOAA.NERRS:apaebwq:1,2015-10-04T14:45:00Z,29.7858,-84.8752,1.9,18.6,1111122 
NERRS,ioos:station:NOAA.NERRS:apaebwq:1,2015-10-04T15:45:00Z,29.7858,-84.8752,1.83,18.4,1111122 
NERRS,ioos:station:NOAA.NERRS:apaebwq:1,2015-10-04T16:45:00Z,29.7858,-84.8752,1.74,18.5,1111122 
NERRS,ioos:station:NOAA.NERRS:apaebwq:1,2015-10-04T17:45:00Z,29.7858,-84.8752,1.68,18.9,1111122 
NERRS,ioos:station:NOAA.NERRS:apaebwq:1,2015-10-04T18:45:00Z,29.7858,-84.8752,1.59,18.3,1111122 
NERRS,ioos:station:NOAA.NERRS:apaebwq:1,2015-10-04T20:45:00Z,29.7858,-84.8752,1.52,18.0,1111122 
NERRS,ioos:station:NOAA.NERRS:apaebwq:1,2015-10-04T21:45:00Z,29.7858,-84.8752,1.56,18.2,1111122 
NERRS,ioos:station:NOAA.NERRS:apaebwq:1,2015-10-04T23:45:00Z,29.7858,-84.8752,1.79,18.3,1111122 
NERRS,ioos:station:NOAA.NERRS:apaebwq:1,2015-10-05T00:45:00Z,29.7858,-84.8752,1.86,18.3,1111122 
NERRS,ioos:station:NOAA.NERRS:apaebwq:1,2015-10-05T02:45:00Z,29.7858,-84.8752,1.98,17.0,1111122 
NERRS,ioos:station:NOAA.NERRS:apaebwq:1,2015-10-05T04:45:00Z,29.7858,-84.8752,2.0,17.3,1111122 
NERRS,ioos:station:NOAA.NERRS:apaebwq:1,2015-10-05T06:45:00Z,29.7858,-84.8752,0.0,18.0,1111122 
NERRS,ioos:station:NOAA.NERRS:apaebwq:1,2015-10-05T09:45:00Z,29.7858,-84.8752,1.98,18.1,1111122 
NERRS,ioos:station:NOAA.NERRS:apaebwq:1,2015-10-05T10:45:00Z,29.7858,-84.8752,1.99,18.3,1111122 
NERRS,ioos:station:NOAA.NERRS:apaebwq:1,2015-10-05T11:45:00Z,29.7858,-84.8752,2.0,18.3,1111122 
NERRS,ioos:station:NOAA.NERRS:apaebwq:1,2015-10-05T12:45:00Z,29.7858,-84.8752,2.04,17.7,1111122 
NERRS,ioos:station:NOAA.NERRS:apaebwq:1,2015-10-05T13:45:00Z,29.7858,-84.8752,2.06,18.0,1111122 
NERRS,ioos:station:NOAA.NERRS:apaebwq:1,2015-10-05T15:45:00Z,29.7858,-84.8752,1.9,17.2,1111122 
NERRS,ioos:station:NOAA.NERRS:apaebwq:1,2015-10-05T16:45:00Z,29.7858,-84.8752,1.83,17.9,1111122 
NERRS,ioos:station:NOAA.NERRS:apaebwq:1,2015-10-05T17:45:00Z,29.7858,-84.8752,1.79,18.0,1111122 
NERRS,ioos:station:NOAA.NERRS:apaebwq:1,2015-10-05T18:45:00Z,29.7858,-84.8752,1.73,17.9,1111122 
NERRS,ioos:station:NOAA.NERRS:apaebwq:1,2015-10-05T19:45:00Z,29.7858,-84.8752,1.67,17.8,1111122 
NERRS,ioos:station:NOAA.NERRS:apaebwq:1,2015-10-05T20:45:00Z,29.7858,-84.8752,1.6,17.9,1111122 
NERRS,ioos:station:NOAA.NERRS:apaebwq:1,2015-10-05T22:45:00Z,29.7858,-84.8752,1.68,18.1,1111122 
NERRS,ioos:station:NOAA.NERRS:apaebwq:1,2015-10-05T23:45:00Z,29.7858,-84.8752,1.77,18.1,1111122 
NERRS,ioos:station:NOAA.NERRS:apaebwq:1,2015-10-06T00:45:00Z,29.7858,-84.8752,1.87,17.8,1111122 
NERRS,ioos:station:NOAA.NERRS:apaebwq:1,2015-10-06T02:45:00Z,29.7858,-84.8752,2.03,17.4,1111122 
NERRS,ioos:station:NOAA.NERRS:apaebwq:1,2015-10-06T03:45:00Z,29.7858,-84.8752,2.06,17.6,1111122 
NERRS,ioos:station:NOAA.NERRS:apaebwq:1,2015-10-06T04:45:00Z,29.7858,-84.8752,2.05,17.1,1111122 
NERRS,ioos:station:NOAA.NERRS:apaebwq:1,2015-10-06T05:45:00Z,29.7858,-84.8752,2.05,17.4,1111122 
NERRS,ioos:station:NOAA.NERRS:apaebwq:1,2015-10-06T06:45:00Z,29.7858,-84.8752,2.04,17.6,1111122 
NERRS,ioos:station:NOAA.NERRS:apaebwq:1,2015-10-06T12:45:00Z,29.7858,-84.8752,2.09,17.4,1111122 
NERRS,ioos:station:NOAA.NERRS:apaebwq:1,2015-10-06T13:45:00Z,29.7858,-84.8752,2.15,17.2,1111122 
NERRS,ioos:station:NOAA.NERRS:apaebwq:1,2015-10-06T14:45:00Z,29.7858,-84.8752,2.18,17.1,1111122 
NERRS,ioos:station:NOAA.NERRS:apaebwq:1,2015-10-06T15:45:00Z,29.7858,-84.8752,2.13,17.0,1111122 
NERRS,ioos:station:NOAA.NERRS:apaebwq:1,2015-10-06T18:45:00Z,29.7858,-84.8752,1.92,17.5,1111122 
NERRS,ioos:station:NOAA.NERRS:apaebwq:1,2015-10-06T19:45:00Z,29.7858,-84.8752,1.84,17.6,1111122 
NERRS,ioos:station:NOAA.NERRS:apaebwq:1,2015-10-06T20:45:00Z,29.7858,-84.8752,1.77,17.6,1111122 
NERRS,ioos:station:NOAA.NERRS:apaebwq:1,2015-10-06T22:45:00Z,29.7858,-84.8752,1.75,17.6,1111122 
NERRS,ioos:station:NOAA.NERRS:apaebwq:1,2015-10-06T23:45:00Z,29.7858,-84.8752,1.8,17.4,1111122 
NERRS,ioos:station:NOAA.NERRS:apaebwq:1,2015-10-07T00:45:00Z,29.7858,-84.8752,1.89,17.6,1111122 
NERRS,ioos:station:NOAA.NERRS:apaebwq:1,2015-10-07T02:45:00Z,29.7858,-84.8752,2.11,17.2,1111122 
NERRS,ioos:station:NOAA.NERRS:apaebwq:1,2015-10-07T03:45:00Z,29.7858,-84.8752,2.19,17.4,1111122 
NERRS,ioos:station:NOAA.NERRS:apaebwq:1,2015-10-07T04:45:00Z,29.7858,-84.8752,2.22,17.4,1111122 
NERRS,ioos:station:NOAA.NERRS:apaebwq:1,2015-10-07T05:45:00Z,29.7858,-84.8752,2.21,17.9,1111122 
NERRS,ioos:station:NOAA.NERRS:apaebwq:1,2015-10-07T07:45:00Z,29.7858,-84.8752,2.13,17.9,1111122 
NERRS,ioos:station:NOAA.NERRS:apaebwq:1,2015-10-07T08:45:00Z,29.7858,-84.8752,2.1,18.0,1111122 
NERRS,ioos:station:NOAA.NERRS:apaebwq:1,2015-10-07T09:45:00Z,29.7858,-84.8752,2.08,18.0,1111122 
NERRS,ioos:station:NOAA.NERRS:apaebwq:1,2015-10-07T10:45:00Z,29.7858,-84.8752,2.06,18.0,1111122 
NERRS,ioos:station:NOAA.NERRS:apaebwq:1,2015-10-07T11:45:00Z,29.7858,-84.8752,2.07,18.0,1111122 
NERRS,ioos:station:NOAA.NERRS:apaebwq:1,2015-10-07T12:45:00Z,29.7858,-84.8752,2.1,17.8,1111122 
NERRS,ioos:station:NOAA.NERRS:apaebwq:1,2015-10-07T13:45:00Z,29.7858,-84.8752,2.16,18.1,1111122 
NERRS,ioos:station:NOAA.NERRS:apaebwq:1,2015-10-07T15:45:00Z,29.7858,-84.8752,2.28,18.5,1111122 
NERRS,ioos:station:NOAA.NERRS:apaebwq:1,2015-10-07T18:45:00Z,29.7858,-84.8752,2.14,18.4,1111122 
NERRS,ioos:station:NOAA.NERRS:apaebwq:1,2015-10-07T22:45:00Z,29.7858,-84.8752,1.89,17.2,1111122 
NERRS,ioos:station:NOAA.NERRS:apaebwq:1,2015-10-07T23:45:00Z,29.7858,-84.8752,1.88,17.4,1111122 
NERRS,ioos:station:NOAA.NERRS:apaebwq:1,2015-10-08T00:45:00Z,29.7858,-84.8752,1.91,18.7,1111122 
NERRS,ioos:station:NOAA.NERRS:apaebwq:1,2015-10-08T02:45:00Z,29.7858,-84.8752,2.14,18.4,1111122 
NERRS,ioos:station:NOAA.NERRS:apaebwq:1,2015-10-08T03:45:00Z,29.7858,-84.8752,2.24,19.4,1111122 
NERRS,ioos:station:NOAA.NERRS:apaebwq:1,2015-10-08T04:45:00Z,29.7858,-84.8752,2.29,19.3,1111122 
NERRS,ioos:station:NOAA.NERRS:apaebwq:1,2015-10-08T05:45:00Z,29.7858,-84.8752,2.32,19.5,1111122 
NERRS,ioos:station:NOAA.NERRS:apaebwq:1,2015-10-08T07:45:00Z,29.7858,-84.8752,2.3,19.6,1111122 
NERRS,ioos:station:NOAA.NERRS:apaebwq:1,2015-10-08T08:45:00Z,29.7858,-84.8752,2.27,19.6,1111122 
NERRS,ioos:station:NOAA.NERRS:apaebwq:1,2015-10-08T09:45:00Z,29.7858,-84.8752,2.2,19.2,1111122 
NERRS,ioos:station:NOAA.NERRS:apaebwq:1,2015-10-08T10:45:00Z,29.7858,-84.8752,2.12,19.4,1111122 
NERRS,ioos:station:NOAA.NERRS:apaebwq:1,2015-10-08T12:45:00Z,29.7858,-84.8752,2.09,19.4,1111122 
NERRS,ioos:station:NOAA.NERRS:apaebwq:1,2015-10-08T13:45:00Z,29.7858,-84.8752,2.14,19.4,1111122 
NERRS,ioos:station:NOAA.NERRS:apaebwq:1,2015-10-08T14:45:00Z,29.7858,-84.8752,2.23,19.4,1111122 
NERRS,ioos:station:NOAA.NERRS:apaebwq:1,2015-10-08T15:45:00Z,29.7858,-84.8752,2.32,19.7,1111122 
NERRS,ioos:station:NOAA.NERRS:apaebwq:1,2015-10-08T16:45:00Z,29.7858,-84.8752,2.35,19.8,1111122 
NERRS,ioos:station:NOAA.NERRS:apaebwq:1,2015-10-08T17:45:00Z,29.7858,-84.8752,2.35,19.9,1111122 
NERRS,ioos:station:NOAA.NERRS:apaebwq:1,2015-10-08T18:45:00Z,29.7858,-84.8752,2.3,19.9,1111122 
NERRS,ioos:station:NOAA.NERRS:apaebwq:1,2015-10-08T19:45:00Z,29.7858,-84.8752,2.24,19.9,1111122 
NERRS,ioos:station:NOAA.NERRS:apaebwq:1,2015-10-08T20:45:00Z,29.7858,-84.8752,2.17,20.1,1111122 
NERRS,ioos:station:NOAA.NERRS:apaebwq:1,2015-10-08T21:45:00Z,29.7858,-84.8752,2.09,20.8,1111122 
NERRS,ioos:station:NOAA.NERRS:apaebwq:1,2015-10-08T23:45:00Z,29.7858,-84.8752,1.96,21.9,1111122 
NERRS,ioos:station:NOAA.NERRS:apaebwq:1,2015-10-09T00:45:00Z,29.7858,-84.8752,1.96,22.2,1111122 
NERRS,ioos:station:NOAA.NERRS:apaebwq:1,2015-10-09T02:45:00Z,29.7858,-84.8752,2.09,22.3,1111122 
NERRS,ioos:station:NOAA.NERRS:apaebwq:1,2015-10-09T03:45:00Z,29.7858,-84.8752,2.23,21.7,1111122 
NERRS,ioos:station:NOAA.NERRS:apaebwq:1,2015-10-09T04:45:00Z,29.7858,-84.8752,2.32,21.6,1111122 
NERRS,ioos:station:NOAA.NERRS:apaebwq:1,2015-10-09T05:45:00Z,29.7858,-84.8752,2.37,21.6,1111122 
NERRS,ioos:station:NOAA.NERRS:apaebwq:1,2015-10-09T07:45:00Z,29.7858,-84.8752,2.36,21.9,1111122 
NERRS,ioos:station:NOAA.NERRS:apaebwq:1,2015-10-09T08:45:00Z,29.7858,-84.8752,2.32,22.0,1111122 
NERRS,ioos:station:NOAA.NERRS:apaebwq:1,2015-10-09T09:45:00Z,29.7858,-84.8752,2.26,21.9,1111122 
NERRS,ioos:station:NOAA.NERRS:apaebwq:1,2015-10-09T10:45:00Z,29.7858,-84.8752,2.18,21.9,1111122 
NERRS,ioos:station:NOAA.NERRS:apaebwq:1,2015-10-09T11:45:00Z,29.7858,-84.8752,2.11,21.9,1111122 
NERRS,ioos:station:NOAA.NERRS:apaebwq:1,2015-10-09T12:45:00Z,29.7858,-84.8752,2.13,21.8,1111122 
NERRS,ioos:station:NOAA.NERRS:apaebwq:1,2015-10-09T13:45:00Z,29.7858,-84.8752,2.17,21.8,1111122 
NERRS,ioos:station:NOAA.NERRS:apaebwq:1,2015-10-09T14:45:00Z,29.7858,-84.8752,2.24,21.9,1111122 
NERRS,ioos:station:NOAA.NERRS:apaebwq:1,2015-10-09T15:45:00Z,29.7858,-84.8752,2.33,22.8,1111122 
NERRS,ioos:station:NOAA.NERRS:apaebwq:1,2015-10-09T16:45:00Z,29.7858,-84.8752,2.4,23.4,1111122 
NERRS,ioos:station:NOAA.NERRS:apaebwq:1,2015-10-09T17:45:00Z,29.7858,-84.8752,2.44,24.1,1111122 
NERRS,ioos:station:NOAA.NERRS:apaebwq:1,2015-10-09T18:45:00Z,29.7858,-84.8752,2.41,24.3,1111122 
NERRS,ioos:station:NOAA.NERRS:apaebwq:1,2015-10-09T19:45:00Z,29.7858,-84.8752,2.35,24.5,1111122 
NERRS,ioos:station:NOAA.NERRS:apaebwq:1,2015-10-09T20:45:00Z,29.7858,-84.8752,2.28,24.7,1111122 
NERRS,ioos:station:NOAA.NERRS:apaebwq:1,2015-10-09T21:45:00Z,29.7858,-84.8752,2.19,24.8,1111122 
NERRS,ioos:station:NOAA.NERRS:apaebwq:1,2015-10-11T01:45:00Z,29.7858,-84.8752,1.91,24.9,1111122 
NERRS,ioos:station:NOAA.NERRS:apaebwq:1,2015-10-11T02:45:00Z,29.7858,-84.8752,1.94,24.6,1111122 
NERRS,ioos:station:NOAA.NERRS:apaebwq:1,2015-10-11T05:45:00Z,29.7858,-84.8752,2.17,23.8,1111122 
NERRS,ioos:station:NOAA.NERRS:apaebwq:1,2015-10-11T07:45:00Z,29.7858,-84.8752,2.22,24.5,1111122 
NERRS,ioos:station:NOAA.NERRS:apaebwq:1,2015-10-11T08:45:00Z,29.7858,-84.8752,2.15,24.5,1111122 
NERRS,ioos:station:NOAA.NERRS:apaebwq:1,2015-10-11T09:45:00Z,29.7858,-84.8752,2.06,24.5,1111122 
NERRS,ioos:station:NOAA.NERRS:apaebwq:1,2015-10-11T11:45:00Z,29.7858,-84.8752,1.89,24.6,1111122 
NERRS,ioos:station:NOAA.NERRS:apaebwq:1,2015-10-11T12:45:00Z,29.7858,-84.8752,1.82,24.6,1111122 
NERRS,ioos:station:NOAA.NERRS:apaebwq:1,2015-10-11T13:45:00Z,29.7858,-84.8752,1.79,25.1,1111122 
NERRS,ioos:station:NOAA.NERRS:apaebwq:1,2015-10-11T14:45:00Z,29.7858,-84.8752,1.83,26.4,1111122 
NERRS,ioos:station:NOAA.NERRS:apaebwq:1,2015-10-11T16:45:00Z,29.7858,-84.8752,2.12,27.2,1111122 
NERRS,ioos:station:NOAA.NERRS:apaebwq:1,2015-10-11T17:45:00Z,29.7858,-84.8752,2.2,27.6,1111122 
NERRS,ioos:station:NOAA.NERRS:apaebwq:1,2015-10-11T18:45:00Z,29.7858,-84.8752,2.27,27.3,1111122 
NERRS,ioos:station:NOAA.NERRS:apaebwq:1,2015-10-11T19:45:00Z,29.7858,-84.8752,2.3,27.5,1111122 
NERRS,ioos:station:NOAA.NERRS:apaebwq:1,2015-10-11T20:45:00Z,29.7858,-84.8752,2.26,27.1,1111122 
NERRS,ioos:station:NOAA.NERRS:apaebwq:1,2015-10-11T21:45:00Z,29.7858,-84.8752,2.17,26.8,1111122 
NERRS,ioos:station:NOAA.NERRS:apaebwq:1,2015-10-11T22:45:00Z,29.7858,-84.8752,2.06,26.5,1111122 
NERRS,ioos:station:NOAA.NERRS:apaebwq:1,2015-10-12T00:45:00Z,29.7858,-84.8752,1.84,26.5,1111122 
NERRS,ioos:station:NOAA.NERRS:apaebwq:1,2015-10-12T01:45:00Z,29.7858,-84.8752,1.79,26.6,1111122 
NERRS,ioos:station:NOAA.NERRS:apaebwq:1,2015-10-12T02:45:00Z,29.7858,-84.8752,1.81,26.4,1111122 
NERRS,ioos:station:NOAA.NERRS:apaebwq:1,2015-10-12T03:45:00Z,29.7858,-84.8752,1.91,26.1,1111122 
NERRS,ioos:station:NOAA.NERRS:apaebwq:1,2015-10-12T04:45:00Z,29.7858,-84.8752,2.07,24.4,1111122 
NERRS,ioos:station:NOAA.NERRS:apaebwq:1,2015-10-12T05:45:00Z,29.7858,-84.8752,2.17,25.2,1111122 
NERRS,ioos:station:NOAA.NERRS:apaebwq:1,2015-10-12T07:45:00Z,29.7858,-84.8752,2.26,25.1,1111122 
NERRS,ioos:station:NOAA.NERRS:apaebwq:1,2015-10-12T08:45:00Z,29.7858,-84.8752,2.21,25.3,1111122 
NERRS,ioos:station:NOAA.NERRS:apaebwq:1,2015-10-12T09:45:00Z,29.7858,-84.8752,2.13,25.2,1111122 
NERRS,ioos:station:NOAA.NERRS:apaebwq:1,2015-10-12T10:45:00Z,29.7858,-84.8752,2.05,25.3,1111122 
NERRS,ioos:station:NOAA.NERRS:apaebwq:1,2015-10-12T11:45:00Z,29.7858,-84.8752,1.96,24.7,1111122 
NERRS,ioos:station:NOAA.NERRS:apaebwq:1,2015-10-12T12:45:00Z,29.7858,-84.8752,1.86,25.1,1111122 
NERRS,ioos:station:NOAA.NERRS:apaebwq:1,2015-10-12T13:45:00Z,29.7858,-84.8752,1.82,24.9,1111122 
NERRS,ioos:station:NOAA.NERRS:apaebwq:1,2015-10-12T14:45:00Z,29.7858,-84.8752,1.84,24.8,1111122 
NERRS,ioos:station:NOAA.NERRS:apaebwq:1,2015-10-12T16:45:00Z,29.7858,-84.8752,2.08,23.7,1111122 
NERRS,ioos:station:NOAA.NERRS:apaebwq:1,2015-10-12T17:45:00Z,29.7858,-84.8752,2.2,23.7,1111122 
NERRS,ioos:station:NOAA.NERRS:apaebwq:1,2015-10-12T18:45:00Z,29.7858,-84.8752,2.29,23.6,1111122 
NERRS,ioos:station:NOAA.NERRS:apaebwq:1,2015-10-12T19:45:00Z,29.7858,-84.8752,2.35,23.4,1111122 
NERRS,ioos:station:NOAA.NERRS:apaebwq:1,2015-10-12T20:45:00Z,29.7858,-84.8752,2.36,23.3,1111122 
NERRS,ioos:station:NOAA.NERRS:apaebwq:1,2015-10-12T21:45:00Z,29.7858,-84.8752,2.3,23.4,1111122 
NERRS,ioos:station:NOAA.NERRS:apaebwq:1,2015-10-12T22:45:00Z,29.7858,-84.8752,2.22,22.0,1111122 
NERRS,ioos:station:NOAA.NERRS:apaebwq:1,2015-10-12T23:45:00Z,29.7858,-84.8752,2.12,21.8,1111122 
NERRS,ioos:station:NOAA.NERRS:apaebwq:1,2015-10-13T03:45:00Z,29.7858,-84.8752,2.03,22.8,1111122 
NERRS,ioos:station:NOAA.NERRS:apaebwq:1,2015-10-13T04:45:00Z,29.7858,-84.8752,2.12,22.9,1111122 
NERRS,ioos:station:NOAA.NERRS:apaebwq:1,2015-10-13T05:45:00Z,29.7858,-84.8752,2.22,22.9,1111122 
NERRS,ioos:station:NOAA.NERRS:apaebwq:1,2015-10-13T07:45:00Z,29.7858,-84.8752,2.37,22.9,1111122 
NERRS,ioos:station:NOAA.NERRS:apaebwq:1,2015-10-13T08:45:00Z,29.7858,-84.8752,2.35,21.9,1111122 
NERRS,ioos:station:NOAA.NERRS:apaebwq:1,2015-10-13T09:45:00Z,29.7858,-84.8752,2.29,20.8,1111122 
NERRS,ioos:station:NOAA.NERRS:apaebwq:1,2015-10-13T10:45:00Z,29.7858,-84.8752,2.17,19.4,1111122 
NERRS,ioos:station:NOAA.NERRS:apaebwq:1,2015-10-13T12:45:00Z,29.7858,-84.8752,1.93,19.2,1111122 
NERRS,ioos:station:NOAA.NERRS:apaebwq:1,2015-10-13T13:45:00Z,29.7858,-84.8752,1.87,19.3,1111122 
NERRS,ioos:station:NOAA.NERRS:apaebwq:1,2015-10-13T14:45:00Z,29.7858,-84.8752,1.86,19.4,1111122 
NERRS,ioos:station:NOAA.NERRS:apaebwq:1,2015-10-13T15:45:00Z,29.7858,-84.8752,1.92,20.0,1111122 
NERRS,ioos:station:NOAA.NERRS:apaebwq:1,2015-10-13T18:45:00Z,29.7858,-84.8752,2.17,17.1,1111122 
NERRS,ioos:station:NOAA.NERRS:apaebwq:1,2015-10-13T19:45:00Z,29.7858,-84.8752,2.27,16.7,1111122 
NERRS,ioos:station:NOAA.NERRS:apaebwq:1,2015-10-13T20:45:00Z,29.7858,-84.8752,2.32,16.4,1111122 
NERRS,ioos:station:NOAA.NERRS:apaebwq:1,2015-10-13T21:45:00Z,29.7858,-84.8752,2.31,16.0,1111122 
NERRS,ioos:station:NOAA.NERRS:apaebwq:1,2015-10-13T22:45:00Z,29.7858,-84.8752,2.24,16.5,1111122 
NERRS,ioos:station:NOAA.NERRS:apaebwq:1,2015-10-13T23:45:00Z,29.7858,-84.8752,2.15,17.1,1111122 
NERRS,ioos:station:NOAA.NERRS:apaebwq:1,2015-10-14T00:45:00Z,29.7858,-84.8752,2.06,16.5,1111122 
NERRS,ioos:station:NOAA.NERRS:apaebwq:1,2015-10-14T03:45:00Z,29.7858,-84.8752,2.05,17.2,1111122 
NERRS,ioos:station:NOAA.NERRS:apaebwq:1,2015-10-14T04:45:00Z,29.7858,-84.8752,2.12,17.3,1111122 
NERRS,ioos:station:NOAA.NERRS:apaebwq:1,2015-10-14T05:45:00Z,29.7858,-84.8752,2.21,16.8,1111122 
NERRS,ioos:station:NOAA.NERRS:apaebwq:1,2015-10-14T07:45:00Z,29.7858,-84.8752,2.34,16.5,1111122 
NERRS,ioos:station:NOAA.NERRS:apaebwq:1,2015-10-14T09:45:00Z,29.7858,-84.8752,2.26,18.1,1111122 
NERRS,ioos:station:NOAA.NERRS:apaebwq:1,2015-10-14T10:45:00Z,29.7858,-84.8752,2.16,17.0,1111122 
NERRS,ioos:station:NOAA.NERRS:apaebwq:1,2015-10-14T12:45:00Z,29.7858,-84.8752,1.92,16.5,1111122 
NERRS,ioos:station:NOAA.NERRS:apaebwq:1,2015-10-14T13:45:00Z,29.7858,-84.8752,1.82,16.7,1111122 
NERRS,ioos:station:NOAA.NERRS:apaebwq:1,2015-10-14T14:45:00Z,29.7858,-84.8752,1.75,16.8,1111122 
NERRS,ioos:station:NOAA.NERRS:apaebwq:1,2015-10-14T15:45:00Z,29.7858,-84.8752,1.72,17.3,1111122 
NERRS,ioos:station:NOAA.NERRS:apaebwq:1,2015-10-14T16:45:00Z,29.7858,-84.8752,1.77,17.2,1111122 
NERRS,ioos:station:NOAA.NERRS:apaebwq:1,2015-10-14T17:45:00Z,29.7858,-84.8752,1.9,16.7,1111122 
NERRS,ioos:station:NOAA.NERRS:apaebwq:1,2015-10-14T19:45:00Z,29.7858,-84.8752,2.15,15.8,1111122 
NERRS,ioos:station:NOAA.NERRS:apaebwq:1,2015-10-14T20:45:00Z,29.7858,-84.8752,2.24,15.5,1111122 
NERRS,ioos:station:NOAA.NERRS:apaebwq:1,2015-10-14T21:45:00Z,29.7858,-84.8752,2.26,15.7,1111122 
NERRS,ioos:station:NOAA.NERRS:apaebwq:1,2015-10-14T22:45:00Z,29.7858,-84.8752,2.24,15.8,1111122 
NERRS,ioos:station:NOAA.NERRS:apaebwq:1,2015-10-14T23:45:00Z,29.7858,-84.8752,2.18,16.6,1111122 
NERRS,ioos:station:NOAA.NERRS:apaebwq:1,2015-10-15T00:45:00Z,29.7858,-84.8752,2.07,16.8,1111122 
NERRS,ioos:station:NOAA.NERRS:apaebwq:1,2015-10-15T02:45:00Z,29.7858,-84.8752,1.96,16.9,1111122 
NERRS,ioos:station:NOAA.NERRS:apaebwq:1,2015-10-15T05:45:00Z,29.7858,-84.8752,2.1,16.8,1111122 
NERRS,ioos:station:NOAA.NERRS:apaebwq:1,2015-10-15T07:45:00Z,29.7858,-84.8752,2.25,16.5,1111122 
NERRS,ioos:station:NOAA.NERRS:apaebwq:1,2015-10-15T08:45:00Z,29.7858,-84.8752,2.28,16.6,1111122 
NERRS,ioos:station:NOAA.NERRS:apaebwq:1,2015-10-15T09:45:00Z,29.7858,-84.8752,2.24,16.9,1111122 
NERRS,ioos:station:NOAA.NERRS:apaebwq:1,2015-10-15T10:45:00Z,29.7858,-84.8752,2.14,17.2,1111122 
NERRS,ioos:station:NOAA.NERRS:apaebwq:1,2015-10-15T11:45:00Z,29.7858,-84.8752,2.02,16.7,1111122 
NERRS,ioos:station:NOAA.NERRS:apaebwq:1,2015-10-15T12:45:00Z,29.7858,-84.8752,1.91,16.6,1111122 
NERRS,ioos:station:NOAA.NERRS:apaebwq:1,2015-10-15T13:45:00Z,29.7858,-84.8752,1.83,16.6,1111122 
NERRS,ioos:station:NOAA.NERRS:apaebwq:1,2015-10-15T14:45:00Z,29.7858,-84.8752,1.74,16.6,1111122 
NERRS,ioos:station:NOAA.NERRS:apaebwq:1,2015-10-15T15:45:00Z,29.7858,-84.8752,1.68,16.7,1111122 
NERRS,ioos:station:NOAA.NERRS:apaebwq:1,2015-10-15T16:45:00Z,29.7858,-84.8752,1.67,16.8,1111122 
NERRS,ioos:station:NOAA.NERRS:apaebwq:1,2015-10-15T17:45:00Z,29.7858,-84.8752,1.75,16.6,1111122 
NERRS,ioos:station:NOAA.NERRS:apaebwq:1,2015-10-15T18:45:00Z,29.7858,-84.8752,1.9,16.1,1111122 
NERRS,ioos:station:NOAA.NERRS:apaebwq:1,2015-10-15T20:45:00Z,29.7858,-84.8752,2.16,15.6,1111122 
NERRS,ioos:station:NOAA.NERRS:apaebwq:1,2015-10-15T21:45:00Z,29.7858,-84.8752,2.23,15.0,1111122 
NERRS,ioos:station:NOAA.NERRS:apaebwq:1,2015-10-15T22:45:00Z,29.7858,-84.8752,2.25,16.0,1111122 
NERRS,ioos:station:NOAA.NERRS:apaebwq:1,2015-10-15T23:45:00Z,29.7858,-84.8752,2.21,15.5,1111122 
NERRS,ioos:station:NOAA.NERRS:apaebwq:1,2015-10-16T00:45:00Z,29.7858,-84.8752,2.15,15.9,1111122 
NERRS,ioos:station:NOAA.NERRS:apaebwq:1,2015-10-16T07:45:00Z,29.7858,-84.8752,2.28,15.2,1111122 
NERRS,ioos:station:NOAA.NERRS:apaebwq:1,2015-10-16T08:45:00Z,29.7858,-84.8752,2.33,15.4,1111122 
NERRS,ioos:station:NOAA.NERRS:apaebwq:1,2015-10-16T09:45:00Z,29.7858,-84.8752,2.31,15.3,1111122 